Regional Weather Roundup
Issued by NWS

Home | Current Version | Previous Version | Graphics & Text | Print | Product List | Glossary On
Versions: 1 2 3 4 5 6 7 8 9 10 11 12 13 14 15 16 17 18 19 20 21 22 23 24 25 26 27 28 29 30 31 32 33 34 35 36 37 38 39 40 41 42 43 44 45 46 47 48 49 50
000
ASUS43 KFSD 281510
RWRSD

WEATHER ROUNDUP FOR SOUTH DAKOTA
NATIONAL WEATHER SERVICE SIOUX FALLS SD
1000 AM CDT TUE MAR 28 2017

NOTE: "FAIR" INDICATES FEW OR NO CLOUDS BELOW 12,000 FEET WITH NO
SIGNIFICANT WEATHER AND/OR OBSTRUCTIONS TO VISIBILITY.


SDZ001>005-009-010-012>017-281600-
NORTHWEST AND NORTH CENTRAL SOUTH DAKOTA

CITY           SKY/WX    TMP DP  RH WIND       PRES   REMARKS
BUFFALO          N/A     43  37  79 NE6       29.97R
FAITH            N/A     42  38  85 MISG      30.04R
MOBRIDGE       CLOUDY    43  35  73 E7        30.06
$$

SDZ012>016-024>037-041>051-057-063-072>074-281600-
SOUTHWEST AND SOUTH CENTRAL SOUTH DAKOTA

CITY           SKY/WX    TMP DP  RH WIND       PRES   REMARKS
RAPID CTY ARPT LGT RAIN  42  34  73 N3        30.01R
PIERRE         CLOUDY    47  40  76 E8        30.06R
CUSTER         LGT RAIN  39  35  86 E7        30.00R
ELLSWORTH AFB  CLOUDY    42  36  80 CALM      30.01R
PHILIP         CLOUDY    46  44  93 E8        30.02R
PINE RIDGE     RAIN      47  47 100 CALM      30.00R FOG
SPEARFISH      FAIR      41  37  87 CALM      30.02R
WINNER         LGT RAIN  47  45  93 SE8       30.07R FOG
$$

SDZ004>011-016>023-039-040-281600-
NORTHEAST SOUTH DAKOTA

CITY           SKY/WX    TMP DP  RH WIND       PRES   REMARKS
ABERDEEN       CLOUDY    39  33  79 NE7       30.14R
WATERTOWN      CLOUDY    43  37  79 CALM      30.12R
BROOKINGS      MOSUNNY   46  39  76 CALM      30.12R
SISSETON         N/A     33  33 100 N5        30.15R WCI  29
$$

SDZ017-020-022-023-036>040-048>070-281600-
SOUTHEAST SOUTH DAKOTA

CITY           SKY/WX    TMP DP  RH WIND       PRES   REMARKS
SIOUX FALLS    PTSUNNY   47  41  80 CALM      30.13R
HURON          PTSUNNY   43  40  89 SE5       30.13R
CHAMBERLAIN    CLOUDY    44  42  92 E6        30.10R
MITCHELL       CLOUDY    46  41  82 S7        30.13R
YANKTON        SUNNY     45  39  81 CALM      30.11S
$$

ABBREVIATIONS USED IN REMARKS
   TC - TEMPERATURE IN CELSIUS
  WCI - WIND CHILL INDEX
   HX - HEAT INDEX
  VSB - VISIBILITY





USA.gov is the U.S. government's official web portal to all federal, state and local government web resources and services.